Location: Bacharowice
(49.9333°N, 19.5833°E)
Time: 23:44:46
(UTC+00:00)

USA 281 - Pass Details

Date: 11 May 2021
Orbit: 1078 x 1081 km, 106.0° (Epoch: 18 June)

Event Time Altitude Azimuth Distance (km) Brightness Sun altitude
Exits shadow 23:36:55 20° 147° (SSE) 2,250 4.5 -20.7°
Maximum altitude 23:41:40 83° 61° (ENE) 1,094 3.2 -20.5°
Drops below altitude 10° 23:48:16 10° 335° (NNW) 2,932 6.1 -20.2°
Sets 23:50:48 0° 335° (NNW) 3,892 6.8 -20.1°
